Simultaneous Nadir Overpasses (SNOs) Predictions

Prediction of SNOs between AQUA and NPP Satellite Orbit:

Table of predicted SNOs for the next 14.0 days since TLE Epoch: 11/30/2012
Index Date (AQUA) Time (AQUA) Lat,Lon (AQUA) SZA (AQUA ) Date (NPP) Time (NPP) Lat,Lon (NPP) SZA (NPP ) Distance(km) Time Diff (sec)
1 12/01/2012 23:27:00 -77.08,-109.18 63.13 12/01/2012 23:26:51 -77.08,-109.18 63.13 0.14 9
2 12/02/2012 00:16:09 77.85, 61.60 116.00 12/02/2012 00:17:17 77.85, 61.68 115.93 1.84 68
3 12/04/2012 14:54:19 76.55,-162.85 117.86 12/04/2012 14:53:12 76.56,-162.78 117.90 1.95 67
4 12/04/2012 15:43:31 -77.28, 7.46 62.95 12/04/2012 15:43:41 -77.29, 7.48 62.96 0.76 10
5 12/07/2012 07:10:55 76.51, -47.16 118.28 12/07/2012 07:10:07 76.50, -47.24 118.35 2.49 48
6 12/07/2012 08:00:01 -77.52, 124.25 62.84 12/07/2012 08:00:29 -77.52, 124.32 62.89 1.95 28
7 12/09/2012 23:27:25 76.83, 69.82 118.25 12/09/2012 23:26:54 76.83, 69.79 118.28 0.66 31
8 12/10/2012 00:16:39 -77.47,-120.12 62.47 12/10/2012 00:17:25 -77.46,-120.21 62.48 2.59 46
9 12/12/2012 15:43:57 77.09,-173.38 118.23 12/12/2012 15:43:42 77.10,-173.33 118.23 1.54 15




NCC Satellite Simultaneous Nadir Overpasses (SNOs) Prediction Service
